TimeCDT,TemperatureF,Dew PointF,Humidity,Sea Level PressureIn,VisibilityMPH,Wind Direction,Wind SpeedMPH,Gust SpeedMPH,PrecipitationIn,Events,Conditions,WindDirDegrees,DateUTC
12:55 AM,57.9,57.0,97,29.71,10.0,WNW,5.8,-,N/A,,Partly Cloudy,300,2013-09-01 05:55:00
1:55 AM,59.0,57.0,93,29.72,10.0,West,5.8,-,N/A,,Mostly Cloudy,270,2013-09-01 06:55:00
2:55 AM,59.0,57.9,96,29.70,10.0,WNW,4.6,-,N/A,,Scattered Clouds,300,2013-09-01 07:55:00
3:55 AM,59.0,57.9,96,29.72,10.0,West,4.6,-,N/A,,Partly Cloudy,270,2013-09-01 08:55:00
4:26 AM,59.0,57.2,94,29.73,10.0,West,4.6,-,N/A,,Mostly Cloudy,280,2013-09-01 09:26:00
4:55 AM,60.1,59.0,96,29.74,10.0,WNW,6.9,-,N/A,,Overcast,290,2013-09-01 09:55:00
5:19 AM,60.8,59.0,94,29.74,10.0,WNW,4.6,-,N/A,,Overcast,290,2013-09-01 10:19:00
5:39 AM,60.8,59.0,94,29.74,10.0,WNW,3.5,-,N/A,,Overcast,290,2013-09-01 10:39:00
5:55 AM,61.0,60.1,97,29.75,10.0,WNW,6.9,-,N/A,,Overcast,290,2013-09-01 10:55:00
6:55 AM,62.1,61.0,96,29.77,10.0,WNW,5.8,-,N/A,,Overcast,300,2013-09-01 11:55:00
7:19 AM,62.6,60.8,94,29.78,7.0,WNW,13.8,-,0.02,Rain,Light Rain,300,2013-09-01 12:19:00
7:43 AM,60.8,57.2,88,29.79,9.0,NNW,15.0,-,0.03,,Overcast,340,2013-09-01 12:43:00
7:55 AM,59.0,57.0,93,29.80,10.0,NNW,17.3,21.9,0.03,,Overcast,330,2013-09-01 12:55:00
8:10 AM,57.2,55.4,94,29.81,10.0,NNW,17.3,26.5,N/A,,Overcast,340,2013-09-01 13:10:00
8:17 AM,57.2,53.6,88,29.82,10.0,NNW,13.8,26.5,N/A,,Overcast,330,2013-09-01 13:17:00
8:53 AM,55.4,53.6,94,29.84,2.5,NNW,16.1,-,N/A,,Overcast,330,2013-09-01 13:53:00
8:55 AM,55.9,54.0,93,29.84,3.0,NNW,13.8,-,N/A,,Overcast,340,2013-09-01 13:55:00
9:06 AM,55.4,53.6,94,29.84,10.0,NNW,11.5,19.6,N/A,,Overcast,330,2013-09-01 14:06:00
9:55 AM,55.9,53.1,90,29.88,10.0,NNW,13.8,-,N/A,,Overcast,330,2013-09-01 14:55:00
10:28 AM,55.4,51.8,88,29.88,10.0,North,15.0,-,N/A,,Overcast,350,2013-09-01 15:28:00
10:44 AM,55.4,51.8,88,29.88,10.0,NNW,13.8,-,N/A,,Overcast,330,2013-09-01 15:44:00
10:55 AM,55.9,51.1,84,29.90,10.0,North,13.8,-,N/A,,Overcast,350,2013-09-01 15:55:00
11:55 AM,57.9,51.1,78,29.92,10.0,North,12.7,19.6,0.00,,Overcast,350,2013-09-01 16:55:00
12:55 PM,57.9,52.0,81,29.94,10.0,NNW,11.5,-,N/A,,Overcast,330,2013-09-01 17:55:00
1:55 PM,61.0,52.0,72,29.95,10.0,NNW,11.5,19.6,N/A,,Overcast,340,2013-09-01 18:55:00
2:55 PM,61.0,51.1,70,29.96,10.0,NNW,13.8,18.4,N/A,,Overcast,330,2013-09-01 19:55:00
3:55 PM,59.0,52.0,78,29.97,10.0,NNW,10.4,-,0.00,Rain,Light Rain,340,2013-09-01 20:55:00
4:55 PM,57.9,52.0,81,29.98,10.0,NW,8.1,-,0.00,,Overcast,320,2013-09-01 21:55:00
5:55 PM,57.9,51.1,78,30.00,10.0,NNW,10.4,-,0.00,,Overcast,330,2013-09-01 22:55:00
6:19 PM,57.2,51.8,82,29.98,10.0,North,10.4,18.4,N/A,,Overcast,350,2013-09-01 23:19:00
6:27 PM,57.2,50.0,77,29.98,10.0,North,13.8,18.4,N/A,,Overcast,350,2013-09-01 23:27:00
6:55 PM,57.0,48.9,74,30.00,10.0,NNW,9.2,-,N/A,,Overcast,330,2013-09-01 23:55:00
7:05 PM,57.2,48.2,72,29.99,10.0,NNW,10.4,-,N/A,,Overcast,330,2013-09-02 00:05:00
7:12 PM,57.2,48.2,72,29.99,10.0,NNW,10.4,-,N/A,,Overcast,330,2013-09-02 00:12:00
7:55 PM,55.9,48.9,77,30.01,10.0,NNW,11.5,-,N/A,,Overcast,330,2013-09-02 00:55:00
8:55 PM,55.0,50.0,83,30.03,10.0,NNW,9.2,-,N/A,,Overcast,330,2013-09-02 01:55:00
9:55 PM,54.0,50.0,86,30.05,10.0,NNW,8.1,-,0.00,Rain,Light Rain,330,2013-09-02 02:55:00
10:55 PM,54.0,48.9,83,30.06,10.0,North,8.1,-,0.00,,Overcast,360,2013-09-02 03:55:00
11:55 PM,53.1,51.1,93,30.06,4.0,NNW,8.1,-,0.00,Rain,Light Rain,330,2013-09-02 04:55:00